Location: Bottom School (historical)
(37.9078°N, 89.3593°W)
Time: 19:03:30
(UTC+00:00)

SL-4 R/B - Pass Details

Date: 03 July 2022
Orbit: 425 x 653 km, 51.6° (Epoch: 16 August)

Event Time Altitude Azimuth Distance (km) Brightness Sun altitude
Exits shadow 08:22:00 - 300° (WNW) 2,190 5.0 -20.8°
Reaches altitude 10° 08:24:21 10° 327° (NNW) 1,658 4.7 -20.5°
Maximum altitude 08:25:52 12° 351° (N) 1,561 4.9 -20.4°
Drops below altitude 10° 08:27:25 10° 14° (NNE) 1,711 5.5 -20.2°
Sets 08:30:59 0° 47° (NE) 2,665 7.1 -19.8°
